Location: Chiroubles
(46.1812°N, 4.6660°E)
Time: 20:56:15
(UTC+00:00)

Courier 1B - Pass Details

Date: 04 August 2021
Orbit: 963 x 1209 km, 28.3° (Epoch: 25 September)

Event Time Altitude Azimuth Distance (km) Brightness Sun altitude
Rises 19:45:19 0° 244° (WSW) 4,106 11.2 -6.6°
Reaches altitude 10° 19:49:05 10° 228° (SW) 3,139 10.3 -7.1°
Maximum altitude 19:54:18 19° 186° (S) 2,477 9.4 -7.9°
Drops below altitude 10° 19:59:26 10° 143° (SE) 3,082 9.5 -8.6°
Enters shadow 19:59:50 - 141° (SE) 3,171 9.5 -8.7°
